Syracuse, NY

7:05 AM EDT on March 30, 2017 (GMT -0400)
Syracuse Hancock International

Weather History for KSYR - April, 2013

Change the Weather History Date:

Tuesday, April 16, 2013

  Actual Average Record
Temperature  
Mean Temperature 54 °F 47 °F  
Max Temperature 64 °F 58 °F 90 °F (2012)
Min Temperature 44 °F 37 °F 22 °F (2014)
Degree Days  
Heating Degree Days 11 18  
Month to date heating degree days 358 337  
Since 1 July heating degree days 5693 6125  
Cooling Degree Days 0 0  
Month to date cooling degree days 0 0  
Year to date cooling degree days 0 0  
Growing Degree Days 5 (Base 50)    
Moisture  
Dew Point 47 °F    
Average Humidity 72    
Maximum Humidity 89    
Minimum Humidity 55    
Precipitation  
Precipitation 0.25 in 0.10 in 1.80 in (1976)
Month to date precipitation 2.81 1.78  
Year to date precipitation 9.25 9.30  
Snow  
Snow 0.00 in 0.10 in 5.80 in (2007)
Month to date snowfall 12.0 2.8  
Since 1 July snowfall 115.4 122.7  
Snow Depth 0.00 in    
Sea Level Pressure  
Sea Level Pressure 30.07 in    
Wind  
Wind Speed 14 mph (WSW)    
Max Wind Speed 29 mph    
Max Gust Speed 39 mph    
Visibility 8 miles    
Events Rain    
T = Trace of Precipitation, MM = Missing Value Source: NWS Daily Summary

Daily Weather History Graph

Daily Weather History Graph

Search for Another Location

Airport or City:

Trip Planner

Search our weather history database for the weather conditions in past years. The results will help you decide how hot, cold, wet, or windy it might be!

Date:

Astronomy

Apr. 16, 2013 Rise Set
Actual Time 6:20 AM EDT 7:48 PM EDT
Civil Twilight 5:50 AM EDT 8:18 PM EDT
Nautical Twilight 5:15 AM EDT 8:54 PM EDT
Astronomical Twilight 4:37 AM EDT 9:32 PM EDT
Moon 10:32 AM EDT (4/16) 12:48 AM EDT (4/16)
Length of Visible Light 14h 27m
Length of Day
13h 28m
Waxing Crescent, 33% of the Moon is Illuminated
Apr 16
Waxing Crescent
Apr 18
First Quarter
Apr 25
Full
May 2
Last Quarter
May 9
New

Hourly Weather History & Observations

Time (EDT) Temp. Windchill Dew Point Humidity Pressure Visibility Wind Dir Wind Speed Gust Speed Precip Events Conditions
12:54 AM 57.0 °F - 41.0 °F 55% 30.13 in 10.0 mi South 19.6 mph 28.8 mph N/A   Mostly Cloudy
1:54 AM 57.0 °F - 42.1 °F 57% 30.11 in 10.0 mi South 18.4 mph 27.6 mph N/A   Overcast
2:54 AM 57.0 °F - 42.1 °F 57% 30.09 in 10.0 mi South 21.9 mph 35.7 mph N/A   Overcast
3:54 AM 55.9 °F - 42.1 °F 60% 30.09 in 10.0 mi South 20.7 mph 39.1 mph N/A   Overcast
4:54 AM 55.9 °F - 41.0 °F 57% 30.10 in 10.0 mi South 15.0 mph 27.6 mph N/A   Overcast
5:54 AM 55.0 °F - 41.0 °F 59% 30.09 in 10.0 mi South 17.3 mph 26.5 mph N/A   Mostly Cloudy
6:54 AM 55.9 °F - 43.0 °F 62% 30.08 in 10.0 mi South 18.4 mph 25.3 mph N/A   Mostly Cloudy
7:54 AM 57.0 °F - 44.1 °F 62% 30.09 in 10.0 mi South 16.1 mph 26.5 mph 0.00 in   Mostly Cloudy
8:54 AM 59.0 °F - 46.0 °F 62% 30.06 in 10.0 mi South 12.7 mph 24.2 mph N/A   Overcast
9:54 AM 57.9 °F - 48.0 °F 70% 30.05 in 10.0 mi South 17.3 mph 32.2 mph 0.00 in Rain Light Rain
10:54 AM 61.0 °F - 48.9 °F 64% 30.03 in 10.0 mi South 10.4 mph 26.5 mph 0.00 in   Overcast
11:54 AM 62.1 °F - 48.9 °F 62% 30.03 in 10.0 mi SSW 21.9 mph 31.1 mph 0.00 in Rain Light Rain
12:54 PM 57.9 °F - 52.0 °F 81% 30.04 in 6.0 mi South 13.8 mph - 0.04 in Rain Light Rain
1:54 PM 59.0 °F - 53.1 °F 81% 30.00 in 10.0 mi South 15.0 mph 25.3 mph 0.01 in Rain Light Rain
2:54 PM 60.1 °F - 52.0 °F 75% 30.01 in 10.0 mi SSW 9.2 mph - 0.00 in   Overcast
3:54 PM 63.0 °F - 53.1 °F 70% 29.98 in 10.0 mi South 13.8 mph 21.9 mph 0.00 in   Overcast
4:54 PM 62.1 °F - 53.1 °F 72% 29.95 in 10.0 mi South 11.5 mph - N/A   Overcast
5:54 PM 63.0 °F - 54.0 °F 72% 29.99 in 1.5 mi WNW 18.4 mph - 0.00 in Rain Rain
5:56 PM 62.6 °F - 53.6 °F 72% 30.00 in 1.8 mi WNW 18.4 mph - 0.00 in Rain Rain
5:58 PM 60.8 °F - 55.4 °F 82% 30.01 in 3.0 mi WNW 16.1 mph - 0.01 in Rain Light Rain
6:07 PM 57.2 °F - 53.6 °F 88% 30.02 in 7.0 mi WNW 21.9 mph 28.8 mph 0.02 in Rain Light Rain
6:21 PM 53.6 °F - 51.8 °F 94% 30.03 in 5.0 mi NW 11.5 mph - 0.04 in Rain Light Rain
6:34 PM 53.6 °F - 50.0 °F 88% 30.04 in 10.0 mi WNW 13.8 mph - 0.05 in Rain Light Rain
6:46 PM 51.8 °F - 48.2 °F 88% 30.06 in 4.0 mi WNW 12.7 mph 20.7 mph 0.07 in Rain Light Rain
6:54 PM 52.0 °F - 48.9 °F 89% 30.05 in 6.0 mi WNW 10.4 mph - 0.09 in Rain Rain
7:10 PM 51.8 °F - 48.2 °F 88% 30.07 in 2.0 mi West 12.7 mph - 0.02 in Rain Light Rain
7:13 PM 51.8 °F - 48.2 °F 88% 30.07 in 3.0 mi WNW 11.5 mph - 0.04 in Rain Heavy Rain
7:17 PM 51.8 °F - 48.2 °F 88% 30.08 in 2.5 mi West 11.5 mph - 0.06 in Rain Rain
7:27 PM 51.8 °F - 48.2 °F 88% 30.09 in 4.0 mi West 9.2 mph - 0.08 in Rain Light Rain
7:54 PM 51.1 °F - 48.0 °F 89% 30.10 in 7.0 mi West 11.5 mph - 0.08 in Rain Rain
8:12 PM 50.0 °F - 46.4 °F 87% 30.13 in 10.0 mi West 13.8 mph 23.0 mph 0.03 in Rain Light Rain
8:30 PM 50.0 °F - 46.4 °F 87% 30.14 in 10.0 mi West 9.2 mph - 0.03 in   Overcast
8:54 PM 50.0 °F - 45.0 °F 83% 30.15 in 10.0 mi West 10.4 mph - 0.03 in   Overcast
9:03 PM 48.2 °F - 46.4 °F 93% 30.16 in 10.0 mi West 10.4 mph - N/A   Overcast
9:54 PM 48.0 °F - 45.0 °F 89% 30.18 in 10.0 mi WSW 5.8 mph - N/A   Overcast
10:54 PM 46.9 °F - 43.0 °F 86% 30.19 in 10.0 mi West 8.1 mph - N/A   Mostly Cloudy
11:54 PM 46.0 °F 41.4 °F 35.1 °F 66% 30.21 in 10.0 mi WNW 9.2 mph - N/A   Overcast